Total_Precipitation_Accumulation
0.04 0.11 0.18 0.29 0.43 0.95 0.29 0.22 0.30 0.28 0.04 0.02 0.03 0.05 0.03 0.06 0.40 0.26 0.20 0.12 0.02 0.00 0.00 0.00 0.00 0.02 0.03 0.02 0.01 0.00 0.00 0.00 0.01 0.02 0.02 0.01 0.00 0.00 0.00 0.00 0.00 0.01 0.02 0.01 0.00 0.00 0.00 0.00 0.01
0.06 0.12 0.26 0.27 0.57 0.85 1.00 0.30 0.13 0.08 0.01 0.00 0.00 0.00 0.03 0.01 0.00 0.01 0.04 0.04 0.00 0.00 0.00 0.00 0.01 0.05 0.04 0.03 0.02 0.01 0.00 0.00 0.00 0.03 0.04 0.02 0.00 0.00 0.00 0.00 0.00 0.00 0.01 0.02 0.06 0.10 0.02 0.01 0.02
0.14 0.15 1.16 0.90 1.02 1.69 0.90 0.11 0.08 0.10 0.02 0.00 0.00 0.00 0.02 0.00 0.00 0.01 0.04 0.02 0.01 0.00 0.00 0.00 0.03 0.05 0.03 0.03 0.03 0.07 0.09 0.10 0.04 0.01 0.04 0.03 0.01 0.01 0.02 0.04 0.05 0.02 0.01 0.00 0.03 0.02 0.02 0.03 0.02
0.05 0.42 0.44 0.70 0.27 0.60 0.71 0.18 0.04 0.04 0.01 0.00 0.00 0.01 0.02 0.01 0.00 0.00 0.01 0.02 0.01 0.00 0.00 0.01 0.02 0.03 0.03 0.04 0.04 0.03 0.05 0.07 0.14 0.03 0.00 0.00 0.00 0.01 0.05 0.11 0.19 0.15 0.03 0.00 0.04 0.09 0.10 0.07 0.01
0.07 1.02 0.92 0.20 0.12 0.31 0.30 0.15 0.05 0.01 0.00 0.00 0.00 0.06 0.06 0.03 0.02 0.02 0.00 0.01 0.00 0.00 0.00 0.01 0.04 0.03 0.01 0.02 0.01 0.00 0.00 0.02 0.06 0.04 0.00 0.00 0.00 0.00 0.00 0.06 0.16 0.16 0.09 0.02 0.07 0.05 0.05 0.06 0.01
0.06 0.21 0.38 0.10 0.16 0.04 0.06 0.15 0.33 0.03 0.00 0.00 0.00 0.17 0.06 0.03 0.00 0.00 0.00 0.00 0.00 0.00 0.00 0.01 0.03 0.02 0.04 0.04 0.02 0.01 0.02 0.03 0.03 0.00 0.00 0.00 0.00 0.00 0.00 0.01 0.07 0.11 0.08 0.10 0.05 0.06 0.07 0.06 0.04
0.02 0.07 0.06 0.02 0.00 0.00 0.00 0.02 0.06 0.03 0.01 0.00 0.00 0.09 0.31 0.11 0.01 0.00 0.00 0.01 0.00 0.02 0.01 0.00 0.01 0.02 0.02 0.02 0.00 0.00 0.00 0.03 0.00 0.00 0.03 0.01 0.00 0.01 0.01 0.00 0.00 0.09 0.11 0.06 0.05 0.05 0.03 0.17 0.28
0.01 0.20 0.04 0.09 0.00 0.00 0.00 0.00 0.01 0.00 0.00 0.02 0.02 0.21 1.43 0.59 0.12 0.05 0.00 0.01 0.01 0.07 0.03 0.00 0.01 0.01 0.00 0.01 0.01 0.03 0.00 0.02 0.00 0.06 0.00 0.01 0.06 0.04 0.00 0.00 0.01 0.02 0.03 0.01 0.01 0.01 0.02 0.13 0.28
0.08 0.47 0.05 0.03 0.00 0.00 0.01 0.01 0.01 0.00 0.00 0.01 0.02 0.09 0.14 0.07 0.08 0.08 0.00 0.08 0.03 0.10 0.15 0.02 0.00 0.00 0.00 0.02 0.01 0.02 0.00 0.02 0.20 0.12 0.01 0.02 0.05 0.03 0.00 0.00 0.02 0.00 0.01 0.00 0.00 0.01 0.07 0.12 0.31
0.05 0.12 0.00 0.00 0.00 0.00 0.01 0.04 0.00 0.00 0.00 0.01 0.04 0.17 0.29 0.14 0.11 0.07 0.00 0.00 0.01 0.05 0.15 0.11 0.02 0.02 0.02 0.00 0.01 0.00 0.01 0.09 0.15 0.07 0.08 0.06 0.00 0.06 0.08 0.04 0.05 0.01 0.00 0.00 0.00 0.00 0.05 0.30 0.48
0.00 0.00 0.00 0.00 0.00 0.00 0.00 0.02 0.00 0.00 0.01 0.01 0.11 0.57 0.62 0.19 0.16 0.08 0.01 0.05 0.00 0.01 0.04 0.13 0.05 0.10 0.10 0.00 0.00 0.01 0.05 0.05 0.03 0.04 0.04 0.00 0.00 0.07 0.13 0.02 0.02 0.01 0.01 0.05 0.23 0.09 0.19 0.18 0.19
0.00 0.00 0.00 0.00 0.00 0.00 0.00 0.00 0.00 0.00 0.00 0.01 0.19 0.08 0.15 0.08 0.19 0.15 0.07 0.04 0.01 0.01 0.05 0.04 0.06 0.18 0.25 0.07 0.07 0.00 0.00 0.00 0.00 0.00 0.01 0.00 0.00 0.01 0.04 0.03 0.01 0.05 0.04 0.19 0.61 0.31 0.15 0.11 0.26
0.00 0.00 0.00 0.00 0.00 0.00 0.00 0.00 0.00 0.00 0.00 0.00 0.01 0.02 0.03 0.09 0.16 0.18 0.02 0.00 0.01 0.02 0.02 0.03 0.08 0.25 0.35 0.18 0.16 0.09 0.00 0.00 0.00 0.00 0.00 0.00 0.00 0.01 0.01 0.03 0.01 0.04 0.12 0.91 0.52 0.20 0.17 0.13 0.27
0.00 0.00 0.00 0.00 0.00 0.00 0.00 0.00 0.00 0.00 0.01 0.00 0.00 0.01 0.04 0.04 0.03 0.08 0.02 0.07 0.03 0.03 0.02 0.05 0.13 0.08 0.14 0.12 0.12 0.10 0.05 0.02 0.02 0.03 0.02 0.00 0.01 0.01 0.00 0.01 0.00 0.06 0.04 0.67 0.44 0.17 0.24 0.15 0.30
0.00 0.00 0.00 0.00 0.00 0.00 0.00 0.14 0.05 0.01 0.02 0.06 0.03 0.07 0.11 0.21 0.20 0.11 0.05 0.04 0.07 0.04 0.03 0.03 0.05 0.00 0.03 0.12 0.10 0.10 0.12 0.02 0.03 0.08 0.07 0.04 0.03 0.00 0.01 0.00 0.01 0.03 0.01 0.08 0.11 0.29 0.16 0.15 0.11
0.00 0.00 0.00 0.00 0.00 0.00 0.00 0.05 0.01 0.03 0.02 0.18 0.48 0.74 0.25 0.55 0.50 0.22 0.07 0.01 0.02 0.01 0.01 0.01 0.02 0.03 0.00 0.02 0.10 0.15 0.21 0.03 0.07 0.14 0.14 0.07 0.02 0.00 0.00 0.00 0.03 0.05 0.08 0.24 0.19 0.34 0.16 0.32 0.33
0.00 0.01 0.00 0.00 0.00 0.00 0.00 0.00 0.00 0.03 0.06 0.42 0.96 0.65 0.49 0.80 0.50 0.30 0.06 0.01 0.00 0.00 0.00 0.01 0.01 0.00 0.03 0.08 0.16 0.25 0.11 0.07 0.10 0.17 0.14 0.12 0.01 0.00 0.00 0.02 0.10 0.05 0.11 0.31 0.13 0.12 0.31 0.29 0.33
0.00 0.00 0.00 0.00 0.00 0.00 0.01 0.01 0.00 0.04 0.12 0.39 0.48 0.31 0.77 0.70 0.47 0.18 0.06 0.02 0.00 0.00 0.00 0.00 0.00 0.01 0.10 0.19 0.20 0.31 0.19 0.04 0.07 0.16 0.06 0.09 0.01 0.01 0.00 0.04 0.10 0.03 0.09 0.13 0.21 0.25 0.16 0.39 0.33
0.00 0.00 0.00 0.00 0.00 0.00 0.00 0.00 0.00 0.11 0.24 0.18 0.21 0.76 0.78 0.50 0.31 0.15 0.06 0.03 0.01 0.00 0.00 0.00 0.00 0.05 0.11 0.20 0.43 0.15 0.03 0.01 0.03 0.06 0.10 0.03 0.01 0.01 0.02 0.08 0.04 0.03 0.13 0.37 0.16 0.13 0.29 0.51 0.24
0.00 0.00 0.00 0.00 0.00 0.00 0.00 0.00 0.01 0.04 0.10 0.07 0.20 1.26 1.03 0.21 0.06 0.05 0.03 0.01 0.00 0.00 0.00 0.00 0.00 0.08 0.28 0.31 0.40 0.12 0.04 0.03 0.00 0.01 0.03 0.01 0.03 0.01 0.01 0.16 0.16 0.02 0.09 0.14 0.04 0.07 0.17 0.22 0.19
0.00 0.00 0.00 0.00 0.00 0.00 0.02 0.06 0.10 0.04 0.02 0.08 0.13 0.32 0.28 0.12 0.02 0.02 0.02 0.00 0.00 0.00 0.00 0.00 0.00 0.09 0.21 0.30 0.28 0.16 0.04 0.03 0.03 0.05 0.01 0.01 0.01 0.00 0.01 0.08 0.12 0.03 0.04 0.08 0.05 0.03 0.15 0.38 0.16
0.00 0.00 0.00 0.00 0.00 0.01 0.01 0.37 0.36 0.09 0.03 0.05 0.04 0.06 0.24 0.06 0.03 0.01 0.03 0.01 0.03 0.00 0.00 0.00 0.00 0.08 0.08 0.10 0.17 0.14 0.03 0.01 0.01 0.03 0.00 0.00 0.02 0.01 0.00 0.01 0.01 0.02 0.04 0.25 0.06 0.02 0.05 0.11 0.46
0.00 0.00 0.00 0.00 0.00 0.00 0.03 0.27 0.34 0.11 0.02 0.03 0.03 0.01 0.04 0.02 0.05 0.02 0.03 0.20 0.05 0.01 0.00 0.00 0.01 0.03 0.02 0.06 0.07 0.09 0.08 0.05 0.02 0.01 0.03 0.03 0.02 0.02 0.01 0.00 0.02 0.01 0.03 0.04 0.03 0.10 0.08 0.09 0.10
0.00 0.00 0.00 0.00 0.00 0.00 0.01 0.03 0.09 0.01 0.00 0.01 0.01 0.01 0.01 0.02 0.02 0.02 0.01 0.02 0.00 0.01 0.00 0.00 0.01 0.03 0.02 0.02 0.01 0.06 0.09 0.07 0.01 0.04 0.01 0.01 0.01 0.01 0.01 0.01 0.04 0.01 0.02 0.03 0.02 0.03 0.10 0.11 0.05
0.00 0.00 0.00 0.00 0.00 0.00 0.05 0.20 0.10 0.03 0.00 0.00 0.00 0.00 0.00 0.00 0.01 0.02 0.00 0.00 0.00 0.00 0.00 0.00 0.00 0.04 0.10 0.06 0.01 0.02 0.06 0.10 0.02 0.03 0.00 0.01 0.01 0.00 0.00 0.01 0.04 0.01 0.02 0.03 0.04 0.02 0.02 0.06 0.13
0.00 0.00 0.00 0.00 0.02 0.00 0.10 0.17 0.13 0.07 0.01 0.01 0.00 0.00 0.00 0.00 0.01 0.02 0.01 0.01 0.01 0.00 0.00 0.00 0.00 0.01 0.05 0.10 0.03 0.00 0.01 0.01 0.01 0.00 0.00 0.00 0.00 0.04 0.01 0.02 0.03 0.01 0.02 0.01 0.03 0.01 0.00 0.02 0.04
0.00 0.00 0.00 0.00 0.00 0.00 0.03 0.29 0.27 0.29 0.09 0.01 0.00 0.00 0.00 0.00 0.00 0.02 0.02 0.00 0.01 0.01 0.00 0.00 0.00 0.00 0.01 0.06 0.06 0.00 0.00 0.00 0.00 0.01 0.00 0.01 0.01 0.10 0.14 0.13 0.08 0.03 0.01 0.02 0.02 0.00 0.03 0.04 0.06
0.00 0.00 0.00 0.00 0.00 0.01 0.01 0.07 0.63 0.60 0.17 0.21 0.13 0.04 0.00 0.00 0.00 0.00 0.00 0.00 0.00 0.00 0.00 0.00 0.00 0.00 0.00 0.09 0.10 0.02 0.00 0.00 0.00 0.02 0.01 0.01 0.03 0.06 0.69 0.72 0.18 0.10 0.03 0.02 0.02 0.00 0.02 0.02 0.01
0.00 0.00 0.00 0.00 0.00 0.00 0.02 0.03 0.08 0.20 0.24 0.19 0.21 0.18 0.05 0.06 0.05 0.05 0.04 0.01 0.00 0.00 0.00 0.00 0.00 0.00 0.02 0.11 0.10 0.10 0.03 0.00 0.00 0.00 0.01 0.01 0.07 0.11 0.55 1.60 0.23 0.09 0.07 0.04 0.03 0.01 0.06 0.08 0.04
0.00 0.00 0.00 0.00 0.00 0.00 0.00 0.12 0.64 0.55 0.21 0.13 0.08 0.05 0.03 0.05 0.04 0.03 0.04 0.05 0.05 0.03 0.06 0.04 0.18 0.35 0.18 0.17 0.04 0.16 0.20 0.10 0.03 0.00 0.00 0.00 0.06 0.11 0.09 0.35 0.16 0.10 0.10 0.07 0.05 0.02 0.04 0.08 0.07